Date String (YYYY-MM-DD hh:mm:ss) UTC,Instrument flags,Ambient pressure (hPa),Sample flow (lpm),Bypass flow (lpm),Sample temperature (°C),Ambient temperature (°C),ASC tube jacket temperature (°C),LED temperature (°C),Box temperature (°C),Sample RH (%),Span deviation,Mass concentration (μg/m³),Mass concentration (μg/m³),Mass concentration (μg/m³)
DateTimeUTC,F1_M11,P_M11,Q1_M11,Q2_M11,T1_M11,T2_M11,T3_M11,T4_M11,T5_M11,U1_M11,ZSPAN_M11,X0_M11,X2_M11,X1_M11
2022-09-14 01:00:00,,0822.4,5.00,0.00,29.8,28.8,00.0,38.4,31.7,15.6,0001.9,0028.20,0013.59,0012.12
2022-09-14 01:01:00,,0822.4,4.99,0.00,29.8,28.2,00.0,38.4,31.7,15.6,0001.4,0027.39,0013.55,0012.09
2022-09-14 01:02:00,,0822.4,5.01,0.00,29.8,26.7,00.0,38.3,31.6,15.8,0001.6,0028.25,0013.50,0012.07
2022-09-14 01:03:00,,0822.4,5.00,0.00,29.7,26.2,00.0,38.3,31.5,15.7,0001.5,0029.08,0013.49,0012.05
2022-09-14 01:04:00,,0822.4,4.99,0.00,29.7,26.4,00.0,38.3,31.4,15.5,0001.3,0027.06,0013.47,0012.05
2022-09-14 01:05:00,,0822.4,5.01,0.00,29.6,26.7,00.0,38.2,31.2,15.4,0001.4,0025.99,0013.45,0012.04
2022-09-14 01:06:00,,0822.4,5.00,0.00,29.5,27.0,00.0,38.2,31.2,15.7,0001.4,0026.49,0013.41,0012.02
2022-09-14 01:07:00,,0822.4,5.00,0.00,29.5,27.4,00.0,38.2,31.3,16.1,0001.4,0026.40,0013.38,0012.01
2022-09-14 01:08:00,,0822.4,5.00,0.00,29.5,27.7,00.0,38.2,31.3,15.9,0001.3,0027.35,0013.35,0011.99
2022-09-14 01:09:00,,0822.4,5.00,0.00,29.5,27.9,00.0,38.2,31.4,15.6,0001.1,0027.73,0013.32,0011.97
2022-09-14 01:10:00,,0822.4,5.00,0.00,29.6,28.1,00.0,38.2,31.4,15.7,0001.1,0028.42,0013.27,0011.94
2022-09-14 01:11:00,,0822.4,5.01,0.00,29.6,28.3,00.0,38.3,31.5,15.5,0001.2,0028.41,0013.21,0011.92
2022-09-14 01:12:00,,0822.4,5.00,0.00,29.6,28.4,00.0,38.3,31.5,15.3,0001.3,0027.81,0013.19,0011.92
2022-09-14 01:13:00,,0822.4,5.00,0.00,29.7,28.6,00.0,38.3,31.6,15.4,0001.4,0027.14,0013.18,0011.93
2022-09-14 01:14:00,,0822.4,4.99,0.00,29.7,28.7,00.0,38.3,31.7,15.5,0001.8,0027.19,0013.17,0011.95
2022-09-14 01:15:00,,0822.4,4.99,0.00,29.7,28.8,00.0,38.3,31.7,15.5,0001.8,0027.44,0013.13,0011.92
2022-09-14 01:16:00,,0822.5,5.01,0.00,29.8,28.9,00.0,38.4,31.7,15.4,0001.5,0027.36,0013.09,0011.87
2022-09-14 01:17:00,,0822.4,5.00,0.00,29.8,28.9,00.0,38.4,31.8,15.3,0001.6,0026.97,0013.17,0011.86
2022-09-14 01:18:00,,0822.4,4.99,0.00,29.9,29.0,00.0,38.4,31.9,15.1,0001.7,0027.06,0013.21,0011.88
2022-09-14 01:19:00,,0822.4,4.99,0.00,29.9,28.5,00.0,38.5,31.9,15.0,0002.2,0025.95,0013.26,0011.91
2022-09-14 01:20:00,,0822.4,5.00,0.00,29.9,27.1,00.0,38.4,31.7,15.1,0002.2,0026.00,0013.33,0011.95
2022-09-14 01:21:00,,0822.4,5.00,0.00,29.8,26.3,00.0,38.4,31.6,15.2,0002.2,0026.21,0013.43,0012.02
2022-09-14 01:22:00,,0822.4,5.00,0.00,29.8,26.5,00.0,38.4,31.5,15.1,0001.6,0027.11,0013.55,0012.08
2022-09-14 01:23:00,,0822.4,5.01,0.00,29.7,26.8,00.0,38.3,31.4,15.1,0001.5,0027.38,0013.62,0012.09
2022-09-14 01:24:00,,0822.4,5.00,0.00,29.6,27.2,00.0,38.3,31.4,15.2,0001.6,0026.77,0013.64,0012.09
2022-09-14 01:25:00,,0822.4,5.00,0.00,29.6,27.5,00.0,38.3,31.4,15.2,0001.5,0026.56,0013.62,0012.08
2022-09-14 01:26:00,,0822.4,5.01,0.00,29.6,27.8,00.0,38.3,31.4,15.3,0001.2,0027.17,0013.61,0012.08
2022-09-14 01:27:00,,0822.3,4.99,0.00,29.6,28.0,00.0,38.3,31.5,15.3,0001.5,0028.22,0013.64,0012.08
2022-09-14 01:28:00,,0822.4,5.01,0.00,29.7,28.2,00.0,38.3,31.5,15.2,0001.4,0028.30,0013.54,0012.05
2022-09-14 01:29:00,,0822.4,5.00,0.00,29.7,28.3,00.0,38.4,31.6,15.2,0000.9,0028.73,0013.50,0012.02
2022-09-14 01:30:00,,0822.4,4.99,0.00,29.7,28.5,00.0,38.4,31.6,15.2,-000.1,0028.84,0013.45,0012.01
2022-09-14 01:31:00,,0822.4,5.01,0.00,29.8,28.6,00.0,38.4,31.7,15.2,-000.0,0029.45,0013.40,0011.99
2022-09-14 01:32:00,,0822.4,5.00,0.00,29.8,28.7,00.0,38.4,31.7,15.1,0000.3,0028.57,0013.33,0011.95
2022-09-14 01:33:00,,0822.3,5.01,0.00,29.8,28.8,00.0,38.4,31.8,15.3,0000.8,0027.55,0013.26,0011.89
2022-09-14 01:34:00,,0822.4,4.99,0.00,29.9,28.9,00.0,38.5,31.8,15.1,0001.1,0027.72,0013.19,0011.86
2022-09-14 01:35:00,,0822.4,5.00,0.00,29.9,28.9,00.0,38.5,31.9,15.0,0000.7,0027.45,0013.21,0011.84
2022-09-14 01:36:00,,0822.4,5.00,0.00,29.9,29.0,00.0,38.5,31.9,15.0,0000.3,0026.61,0013.19,0011.82
2022-09-14 01:37:00,,0822.3,5.01,0.00,30.0,28.6,00.0,38.6,31.9,15.1,0000.8,0025.78,0013.18,0011.80
2022-09-14 01:38:00,,0822.3,5.00,0.00,30.0,27.1,00.0,38.5,31.8,15.0,0001.0,0025.09,0013.24,0011.83
2022-09-14 01:39:00,,0822.3,5.00,0.00,29.9,26.1,00.0,38.5,31.6,15.1,0001.0,0024.58,0013.26,0011.84
2022-09-14 01:40:00,,0822.2,5.00,0.00,29.8,26.2,00.0,38.4,31.5,15.3,0001.1,0024.42,0013.27,0011.86
2022-09-14 01:41:00,,0822.3,4.99,0.00,29.7,26.5,00.0,38.4,31.4,15.4,0001.4,0025.42,0013.28,0011.87
2022-09-14 01:42:00,,0822.3,4.99,0.00,29.7,26.9,00.0,38.4,31.4,15.6,0001.5,0024.51,0013.24,0011.88
2022-09-14 01:43:00,,0822.3,5.01,0.00,29.6,27.3,00.0,38.4,31.4,15.6,0000.9,0024.72,0013.23,0011.88
2022-09-14 01:44:00,,0822.3,4.99,0.00,29.6,27.6,00.0,38.4,31.4,15.7,0001.0,0024.64,0013.19,0011.88
2022-09-14 01:45:00,,0822.3,5.00,0.00,29.6,27.9,00.0,38.4,31.5,15.8,0001.2,0024.78,0013.21,0011.88
2022-09-14 01:46:00,,0822.3,4.99,0.00,29.7,28.1,00.0,38.4,31.5,15.9,0001.4,0025.55,0013.15,0011.87
2022-09-14 01:47:00,,0822.4,5.01,0.00,29.7,28.2,00.0,38.4,31.5,15.8,0001.7,0027.20,0013.16,0011.87
2022-09-14 01:48:00,,0822.4,5.00,0.00,29.7,28.4,00.0,38.4,31.6,15.6,0001.6,0027.50,0013.16,0011.85
2022-09-14 01:49:00,,0822.4,4.99,0.00,29.7,28.5,00.0,38.4,31.6,15.5,0001.4,0026.91,0013.06,0011.80
2022-09-14 01:50:00,,0822.4,4.99,0.00,29.7,28.6,00.0,38.4,31.7,15.5,0001.6,0027.44,0013.01,0011.78
2022-09-14 01:51:00,,0822.4,5.01,0.00,29.8,28.7,00.0,38.4,31.7,15.5,0001.8,0026.68,0012.99,0011.73
2022-09-14 01:52:00,,0822.4,4.99,0.00,29.8,28.8,00.0,38.5,31.8,15.4,0001.9,0025.94,0012.92,0011.66
2022-09-14 01:53:00,,0822.4,5.00,0.00,29.9,28.8,00.0,38.5,31.8,15.3,0002.0,0026.08,0012.89,0011.59
2022-09-14 01:54:00,,0822.4,5.01,0.00,29.9,28.9,00.0,38.5,31.9,15.3,0001.9,0026.97,0012.91,0011.53
2022-09-14 01:55:00,,0822.4,5.01,0.00,29.9,28.9,00.0,38.6,31.9,15.4,0001.6,0027.97,0012.92,0011.51
2022-09-14 01:56:00,,0822.4,5.01,0.00,30.0,29.0,00.0,38.6,31.9,15.3,0001.4,0027.63,0012.86,0011.47
2022-09-14 01:57:00,,0822.4,5.00,0.00,30.0,28.9,00.0,38.6,32.0,15.5,0000.9,0026.88,0012.80,0011.41
2022-09-14 01:58:00,,0822.4,5.00,0.00,30.0,27.5,00.0,38.6,31.9,15.5,0000.4,0026.04,0012.74,0011.36
2022-09-14 01:59:00,,0822.4,4.99,0.00,29.9,26.2,00.0,38.6,31.7,15.3,0000.5,0025.98,0012.72,0011.35
